Home   Weather   Lincoln   Past weeks

Flag for USA Past Weather in Lincoln, Nebraska, USA — Yesterday and Last 2 Weeks

Now
24 °F

Sunny.


Feels Like: 14 °F
Forecast: 22 / 33 °F
Wind: 9 mph from Northwest

Location: Lincoln Municipal Airport

Current Time: Jan 17, 2017 at 9:07:51 am

Latest Report: Jan 17, 2017 at 7:54 am


Visibility: 10 mi

Pressure: 30.13 "Hg

Humidity: 81%

Dew Point: 19 °F

Location of LincolnLocation

Past Weather in Lincoln — Graph

°F

Lincoln Temperature Yesterday

Maximum temperature yesterday: 33 °F (at 7:56 am)
Minimum temperature yesterday: 32 °F (at 1:01 am)
Average temperature yesterday: 33 °F

High & Low Weather Summary for the Past Weeks

 TemperatureHumidityPressure
High38 °F (Jan 2, 1:54 pm)100% (Jan 2, 3:54 pm)30.78 "Hg (Jan 2, 3:54 pm)
Low-8 °F (Jan 6, 7:54 am)34% (Jan 14, 2:54 pm)29.39 "Hg (Jan 10, 3:54 am)
Average21 °F74%30.23 "Hg
* Reported Jan 2 7:54 am — Jan 17 7:54 am, Lincoln, Weather by CustomWeather, © 2017

Note: Actual official high and low records may vary slightly from our data, if they occured in-between our weather recording intervals... More about our weather records

Advertising

Lincoln Weather History for the Previous 24 Hours

Scroll right to see more
 ConditionsComfort  
Time TempWeatherWind HumidityBarometerVisibility
7:54 am
Tue, Jan 17
24 °FSunny.9 mph81%30.13 "Hg10 mi
6:54 am25 °FPassing clouds.8 mph78%30.13 "Hg10 mi
6:37 am26 °FPassing clouds.10 mph77%30.08 "Hg10 mi
5:54 am26 °FClear.10 mph77%30.09 "Hg10 mi
5:16 am28 °FPassing clouds.12 mph81%30.04 "Hg10 mi
5:03 am28 °FPassing clouds.13 mph81%30.04 "Hg10 mi
4:16 am29 °FPassing clouds.9 mph85%30.03 "Hg10 mi
4:05 am30 °FPassing clouds.10 mph79%30.04 "Hg10 mi
3:13 am31 °FMostly cloudy.8 mph85%30.04 "Hg10 mi
3:00 am31 °FMostly cloudy.8 mph85%30.04 "Hg10 mi
2:04 am32 °FMostly cloudy.13 mph88%30.03 "Hg10 mi
1:54 am32 °FMostly cloudy.10 mph88%30.05 "Hg10 mi
1:10 am33 °FMostly cloudy.14 mph88%30.00 "Hg10 mi
12:54 am33 °FOvercast.10 mph88%30.03 "Hg10 mi
12:07 am33 °FOvercast.10 mph88%30.00 "Hg8 mi
11:54 pm
Mon, Jan 16
33 °FLow clouds.13 mph88%30.03 "Hg8 mi
11:09 pm33 °FFog.8 mph96%29.99 "Hg5 mi
10:27 pm33 °FLight rain. Fog.8 mph96%30.00 "Hg3 mi
9:54 pm33 °FFog.8 mph96%30.03 "Hg3 mi
8:54 pm33 °FFog.10 mph96%30.01 "Hg4 mi
7:54 pm33 °FLight rain. Fog.14 mph96%30.01 "Hg3 mi
7:42 pm33 °FLight rain. Fog.13 mph96%29.97 "Hg2 mi
7:03 pm33 °FLight snow. Fog.14 mph96%29.96 "Hg2 mi
5:54 pm33 °FLow clouds.14 mph96%29.96 "Hg7 mi
4:54 pm33 °FLow clouds.15 mph96%29.95 "Hg8 mi
3:54 pm33 °FLow clouds.15 mph96%29.93 "Hg10 mi
2:54 pm33 °FFog.10 mph96%29.93 "Hg6 mi
2:14 pm33 °FLight rain. Fog.12 mph96%29.89 "Hg4 mi
1:33 pm33 °FFog.12 mph96%29.89 "Hg5 mi
12:42 pm33 °FFog.10 mph96%29.91 "Hg2 mi
11:54 am33 °FLight rain. Fog.10 mph96%29.96 "Hg4 mi
10:54 am33 °FRain. Fog.9 mph96%29.99 "Hg3 mi
9:54 am33 °FRain. Fog.13 mph92%29.99 "Hg3 mi
Weather by CustomWeather, © 2017

See weather overviewHow to use our weather pages